Location: Fours
(44.3167°N, 6.7000°E)
Time: 21:19:35
(UTC+00:00)

Cosmos 2098 - Pass Details

Date: 16 October 2021
Orbit: 389 x 1581 km, 82.9° (Epoch: 29 November)

Event Time Altitude Azimuth Distance (km) Brightness Sun altitude
Rises 17:43:10 0° 187° (S) 2,357 8.2 -10.8°
Reaches altitude 10° 17:45:12 10° 187° (S) 1,446 7.1 -11.1°
Maximum altitude 17:48:13 90° 209° (SSW) 396 4.1 -11.7°
Drops below altitude 10° 17:51:16 10° 8° (N) 1,465 6.9 -12.2°
Sets 17:53:21 0° 8° (N) 2,393 8.0 -12.6°
